Flag for Canada Weather past 2 weeks in Yellowknife, Northwest Territories, Canada

Now
82 °F

Broken clouds.


Feels Like: 82 °F
Forecast: 60 / 79 °F
Wind: 15 mph from South

Location: Yellowknife

Current Time: Jul 23, 2014 at 5:48:00 PM

Latest Report: Jul 23, 2014 at 5:00 PM


Visibility: 12 mi

Pressure: 29.85 "Hg

Humidity: 40%

Dew point: 55 °F

Location of YellowknifeLocation

Historic Weather in Yellowknife — Graph

°F

Yellowknife temperature yesterday

Maximum temperature yesterday: 73 °F (at 6:00 PM)
Minimum temperature yesterday: 57 °F (at 5:00 AM)
Average temperature yesterday: 64 °F

Past Weeks' High & Low Weather Summary

 TemperatureHumidityPressure
High79 °F (Jul 15, 5:00 PM)94% (Jul 9, 1:00 AM)30.23 "Hg (Jul 9, 1:00 AM)
Low39 °F (Jul 18, 4:00 AM)24% (Jul 19, 6:00 PM)29.58 "Hg (Jul 19, 5:00 AM)
Average63 °F55%29.85 "Hg
* Reported Jul 8 4:00 PM — Jul 23 4:00 PM, Yellowknife, Weather by CustomWeather, © 2014

Note: Actual official high and low records may vary slightly from our data, if they occured in-between our weather recording intervals... More about our weather records

Advertising

Yellowknife weather history for previous 24 hours

 ConditionsComfort  
Time TempWeatherWind HumidityBarometerVisibility
4:00 PM
Jul 23
79 °FPartly sunny.15 mph48%29.88 "Hg10 mi
3:00 PM77 °FPartly sunny.17 mph51%29.90 "Hg12 mi
2:00 PM75 °FPartly sunny.16 mph50%29.91 "Hg15 mi
1:00 PM75 °FScattered clouds.10 mph54%29.92 "Hg15 mi
12:00 PM73 °FScattered clouds.13 mph53%29.94 "Hg15 mi
11:00 AM70 °FScattered clouds.17 mph60%29.96 "Hg15 mi
10:00 AM73 °FScattered clouds.9 mph57%29.97 "Hg15 mi
9:00 AM70 °FScattered clouds.9 mph64%29.98 "Hg15 mi
8:00 AM66 °FScattered clouds.10 mph73%29.98 "Hg15 mi
7:00 AM64 °FScattered clouds.7 mph73%29.99 "Hg15 mi
5:00 AM57 °FPassing clouds.6 mph82%30.01 "Hg15 mi
4:00 AM59 °FPartly cloudy.5 mph77%30.01 "Hg15 mi
3:00 AM61 °FPassing clouds.5 mph72%30.02 "Hg15 mi
2:00 AM61 °FOvercast.6 mph77%30.03 "Hg15 mi
12:00 AM63 °FMostly cloudy.6 mph73%30.03 "Hg10 mi
11:00 PM
Jul 22
63 °FMostly cloudy.6 mph73%30.03 "Hg10 mi
10:00 PM64 °FMostly cloudy.5 mph68%30.03 "Hg12 mi
9:00 PM66 °FOvercast.6 mph64%30.03 "Hg12 mi
8:00 PM68 °FSunny.7 mph60%30.03 "Hg8 mi
7:00 PM70 °FSunny.10 mph53%30.04 "Hg8 mi
6:00 PM73 °FSunny.10 mph47%30.04 "Hg10 mi
Weather by CustomWeather, © 2014

See weather overviewHow to use our weather pages